Retour au catalogue

SL-8 R/B

ActifPO
NORAD 13618·ROCKET BODY·🇷🇺 Russia

Lancé Oct 19, 1982 depuis Plesetsk Cosmodrome

Loading…

Prochains Passages (prochaines 24 heures)

TLE

FraisSource: Space-Track

Époque: Sep 14, 2026, 11:54 UTC

1 13618U 82102B   26257.49636046  .00000080  00000-0  65104-4 0  9990
2 13618  82.9707 159.3872 0032874  40.9222 131.6744 13.77064407205655

Suivez SL-8 R/B en temps réel avec AllMySat

Download on the App Store